Time,TemperatureF,DewpointF,PressureIn,WindDirection,WindDirectionDegrees,WindSpeedMPH,WindSpeedGustMPH,Humidity,HourlyPrecipIn,Conditions,Clouds,dailyrainin,SoftwareType,DateUTC
2013-11-04 00:02:00,64.1,56.4,30.01,SSE,159,2.7,9.0,76,0.00,,,0.00,WUHU216DAVISVP2,2013-11-04 06:02:00,
2013-11-04 00:07:00,64.0,56.4,30.01,SSE,160,0.0,8.1,76,0.00,,,0.00,WUHU216DAVISVP2,2013-11-04 06:07:00,
2013-11-04 00:12:00,63.9,56.3,30.01,SE,145,2.7,6.0,76,0.00,,,0.00,WUHU216DAVISVP2,2013-11-04 06:12:00,
2013-11-04 00:17:00,63.9,56.3,30.01,SSE,159,4.1,5.4,76,0.00,,,0.00,WUHU216DAVISVP2,2013-11-04 06:17:00,
2013-11-04 00:22:00,63.8,56.6,30.01,SSE,162,2.7,5.4,77,0.00,,,0.00,WUHU216DAVISVP2,2013-11-04 06:22:00,
2013-11-04 00:27:00,63.7,56.5,30.01,South,174,0.0,5.4,77,0.00,,,0.00,WUHU216DAVISVP2,2013-11-04 06:27:00,
2013-11-04 00:32:00,63.6,56.4,30.01,South,170,2.7,4.1,77,0.00,,,0.00,WUHU216DAVISVP2,2013-11-04 06:32:00,
2013-11-04 00:37:00,63.5,56.3,30.00,SSE,166,1.4,4.1,77,0.00,,,0.00,WUHU216DAVISVP2,2013-11-04 06:37:00,
2013-11-04 00:42:00,63.6,56.3,30.01,ESE,122,0.0,5.4,77,0.00,,,0.00,WUHU216DAVISVP2,2013-11-04 06:42:00,
2013-11-04 00:47:00,63.6,56.3,30.00,SE,142,1.4,5.4,77,0.00,,,0.00,WUHU216DAVISVP2,2013-11-04 06:47:00,
2013-11-04 00:52:00,63.5,56.2,30.01,SE,140,1.4,5.4,77,0.00,,,0.00,WUHU216DAVISVP2,2013-11-04 06:52:00,
2013-11-04 00:57:00,63.4,56.1,30.01,SE,142,4.1,4.1,77,0.00,,,0.00,WUHU216DAVISVP2,2013-11-04 06:57:00,
2013-11-04 01:02:00,63.5,56.2,30.00,SSE,164,1.4,4.1,77,0.00,,,0.00,WUHU216DAVISVP2,2013-11-04 07:02:00,
2013-11-04 01:07:00,63.3,56.4,30.00,SSE,161,1.4,4.1,78,0.00,,,0.00,WUHU216DAVISVP2,2013-11-04 07:07:00,
2013-11-04 01:12:00,63.2,56.3,30.00,SSE,160,2.7,4.1,78,0.00,,,0.00,WUHU216DAVISVP2,2013-11-04 07:12:00,
2013-11-04 01:17:00,63.1,56.2,30.00,SSE,156,2.7,4.1,78,0.00,,,0.00,WUHU216DAVISVP2,2013-11-04 07:17:00,
2013-11-04 01:22:00,63.1,56.2,30.00,SSE,162,0.0,4.1,78,0.00,,,0.00,WUHU216DAVISVP2,2013-11-04 07:22:00,
2013-11-04 01:27:00,63.0,56.1,30.00,SSE,162,1.4,4.1,78,0.00,,,0.00,WUHU216DAVISVP2,2013-11-04 07:27:00,
2013-11-04 01:32:00,62.9,56.4,30.00,SSE,162,1.4,3.0,79,0.00,,,0.00,WUHU216DAVISVP2,2013-11-04 07:32:00,
2013-11-04 01:37:00,62.8,56.3,29.99,SSE,153,1.4,4.1,79,0.00,,,0.00,WUHU216DAVISVP2,2013-11-04 07:37:00,
2013-11-04 01:42:00,62.8,56.3,29.99,SE,141,4.1,5.4,79,0.00,,,0.00,WUHU216DAVISVP2,2013-11-04 07:42:00,
2013-11-04 01:47:00,62.8,56.3,29.98,SE,143,0.0,5.4,79,0.00,,,0.00,WUHU216DAVISVP2,2013-11-04 07:47:00,
2013-11-04 01:52:00,62.7,56.5,29.97,SE,143,1.4,4.1,80,0.00,,,0.00,WUHU216DAVISVP2,2013-11-04 07:52:00,
2013-11-04 01:57:00,62.4,56.2,29.96,SE,142,1.4,4.1,80,0.00,,,0.00,WUHU216DAVISVP2,2013-11-04 07:57:00,
2013-11-04 02:02:00,62.2,56.0,29.96,SE,139,0.0,4.1,80,0.00,,,0.00,WUHU216DAVISVP2,2013-11-04 08:02:00,
2013-11-04 02:07:00,62.1,56.2,29.96,SSE,147,0.0,4.1,81,0.00,,,0.00,WUHU216DAVISVP2,2013-11-04 08:07:00,
2013-11-04 02:12:00,62.1,56.2,29.97,SSE,147,0.0,3.0,81,0.00,,,0.00,WUHU216DAVISVP2,2013-11-04 08:12:00,
2013-11-04 02:17:00,62.1,56.2,29.97,SSE,147,1.4,3.0,81,0.00,,,0.00,WUHU216DAVISVP2,2013-11-04 08:17:00,
2013-11-04 02:22:00,62.0,56.2,29.98,SSE,147,0.0,3.0,81,0.00,,,0.00,WUHU216DAVISVP2,2013-11-04 08:22:00,
2013-11-04 02:27:00,61.9,56.1,29.98,SSE,147,0.0,3.0,81,0.00,,,0.00,WUHU216DAVISVP2,2013-11-04 08:27:00,
2013-11-04 02:32:00,61.9,56.1,29.99,SSE,151,0.0,3.0,81,0.00,,,0.00,WUHU216DAVISVP2,2013-11-04 08:32:00,
2013-11-04 02:37:00,61.9,56.1,29.99,SSE,155,0.0,3.0,81,0.00,,,0.00,WUHU216DAVISVP2,2013-11-04 08:37:00,
2013-11-04 02:42:00,61.9,56.4,29.97,SSE,154,0.0,1.4,82,0.00,,,0.00,WUHU216DAVISVP2,2013-11-04 08:42:00,
2013-11-04 02:47:00,61.7,56.2,29.98,SSE,155,0.0,1.0,82,0.00,,,0.00,WUHU216DAVISVP2,2013-11-04 08:47:00,
2013-11-04 02:52:00,61.5,56.0,29.97,SSE,154,0.0,1.0,82,0.00,,,0.00,WUHU216DAVISVP2,2013-11-04 08:52:00,
2013-11-04 02:57:00,61.3,56.1,29.97,SSE,154,0.0,0.0,83,0.00,,,0.00,WUHU216DAVISVP2,2013-11-04 08:57:00,
2013-11-04 03:02:00,61.0,56.2,29.96,SSE,154,0.0,0.0,84,0.00,,,0.00,WUHU216DAVISVP2,2013-11-04 09:02:00,
2013-11-04 03:07:00,60.7,55.9,29.95,SSE,154,0.0,0.0,84,0.00,,,0.00,WUHU216DAVISVP2,2013-11-04 09:07:00,
2013-11-04 03:12:00,60.5,56.0,29.95,SSE,154,0.0,4.1,85,0.00,,,0.00,WUHU216DAVISVP2,2013-11-04 09:12:00,
2013-11-04 03:17:00,60.7,56.2,29.95,SSE,153,1.4,4.1,85,0.00,,,0.00,WUHU216DAVISVP2,2013-11-04 09:17:00,
2013-11-04 03:22:00,60.9,56.0,29.94,SSE,151,1.4,3.0,84,0.00,,,0.00,WUHU216DAVISVP2,2013-11-04 09:22:00,
2013-11-04 03:27:00,60.9,56.1,29.94,South,171,0.0,5.0,84,0.00,,,0.00,WUHU216DAVISVP2,2013-11-04 09:27:00,
2013-11-04 03:32:00,61.0,56.2,29.95,SSE,164,0.0,5.0,84,0.00,,,0.00,WUHU216DAVISVP2,2013-11-04 09:32:00,
2013-11-04 03:37:00,61.0,56.2,29.95,SSE,164,0.0,5.0,84,0.00,,,0.00,WUHU216DAVISVP2,2013-11-04 09:37:00,
2013-11-04 03:42:00,61.0,56.1,29.94,SSE,164,0.0,5.0,84,0.00,,,0.00,WUHU216DAVISVP2,2013-11-04 09:42:00,
2013-11-04 03:47:00,61.0,56.1,29.94,SSE,164,0.0,3.0,84,0.00,,,0.00,WUHU216DAVISVP2,2013-11-04 09:47:00,
2013-11-04 03:52:00,60.9,56.1,29.94,SSE,164,0.0,1.0,84,0.00,,,0.00,WUHU216DAVISVP2,2013-11-04 09:52:00,
2013-11-04 03:57:00,60.8,56.3,29.94,SSE,164,0.0,0.0,85,0.00,,,0.00,WUHU216DAVISVP2,2013-11-04 09:57:00,
2013-11-04 04:02:00,60.8,55.9,29.94,SSE,164,0.0,0.0,84,0.00,,,0.00,WUHU216DAVISVP2,2013-11-04 10:02:00,
2013-11-04 04:07:00,60.7,55.8,29.94,SSE,164,0.0,0.0,84,0.00,,,0.00,WUHU216DAVISVP2,2013-11-04 10:07:00,
2013-11-04 04:12:00,60.6,56.1,29.94,SSE,164,0.0,0.0,85,0.00,,,0.00,WUHU216DAVISVP2,2013-11-04 10:12:00,
2013-11-04 04:17:00,60.5,56.0,29.94,SSE,164,0.0,0.0,85,0.00,,,0.00,WUHU216DAVISVP2,2013-11-04 10:17:00,
2013-11-04 04:22:00,60.5,55.9,29.94,SSE,164,0.0,0.0,85,0.00,,,0.00,WUHU216DAVISVP2,2013-11-04 10:22:00,
2013-11-04 04:27:00,60.3,55.8,29.94,SSE,164,0.0,0.0,85,0.00,,,0.00,WUHU216DAVISVP2,2013-11-04 10:27:00,
2013-11-04 04:32:00,60.2,56.0,29.94,SSE,164,0.0,0.0,86,0.00,,,0.00,WUHU216DAVISVP2,2013-11-04 10:32:00,
2013-11-04 04:37:00,60.1,55.9,29.95,SSE,164,0.0,0.0,86,0.00,,,0.00,WUHU216DAVISVP2,2013-11-04 10:37:00,
2013-11-04 04:42:00,60.0,55.8,29.95,SSE,164,0.0,0.0,86,0.00,,,0.00,WUHU216DAVISVP2,2013-11-04 10:42:00,
2013-11-04 04:47:00,59.9,56.0,29.95,SSE,164,0.0,0.0,87,0.00,,,0.00,WUHU216DAVISVP2,2013-11-04 10:47:00,
2013-11-04 04:52:00,59.9,56.0,29.95,SSE,164,0.0,0.0,87,0.00,,,0.00,WUHU216DAVISVP2,2013-11-04 10:52:00,
2013-11-04 04:57:00,60.0,56.1,29.96,SSE,164,0.0,1.0,87,0.00,,,0.00,WUHU216DAVISVP2,2013-11-04 10:57:00,
2013-11-04 05:02:00,60.0,56.1,29.96,SSE,164,0.0,1.0,87,0.00,,,0.00,WUHU216DAVISVP2,2013-11-04 11:02:00,
2013-11-04 05:07:00,60.1,56.5,29.95,SSE,164,0.0,1.0,88,0.00,,,0.00,WUHU216DAVISVP2,2013-11-04 11:07:00,
2013-11-04 05:12:00,60.0,56.4,29.95,SSE,164,0.0,1.0,88,0.00,,,0.00,WUHU216DAVISVP2,2013-11-04 11:12:00,
2013-11-04 05:14:00,60.0,56.4,29.95,SSE,164,0.0,0.0,88,0.00,,,0.00,WUHU216DAVISVP2,2013-11-04 11:14:00,
2013-11-04 05:19:00,59.9,56.3,29.95,SSE,164,0.0,0.0,88,0.00,,,0.00,WUHU216DAVISVP2,2013-11-04 11:19:00,
2013-11-04 05:22:00,59.9,56.3,29.95,SSE,164,0.0,0.0,88,0.00,,,0.00,WUHU216DAVISVP2,2013-11-04 11:22:00,
2013-11-04 05:27:00,59.8,56.2,29.95,SSE,164,0.0,0.0,88,0.00,,,0.00,WUHU216DAVISVP2,2013-11-04 11:27:00,
2013-11-04 05:32:00,59.8,56.2,29.95,SSE,164,0.0,0.0,88,0.00,,,0.00,WUHU216DAVISVP2,2013-11-04 11:32:00,
2013-11-04 05:37:00,59.8,56.2,29.96,SSE,164,0.0,0.0,88,0.00,,,0.00,WUHU216DAVISVP2,2013-11-04 11:37:00,
2013-11-04 05:42:00,59.8,56.2,29.96,SSE,164,0.0,1.4,88,0.00,,,0.00,WUHU216DAVISVP2,2013-11-04 11:42:00,
2013-11-04 05:47:00,59.9,56.3,29.96,SSE,164,0.0,1.4,88,0.00,,,0.00,WUHU216DAVISVP2,2013-11-04 11:47:00,
2013-11-04 05:52:00,60.0,56.4,29.97,SSE,164,0.0,1.4,88,0.00,,,0.00,WUHU216DAVISVP2,2013-11-04 11:52:00,
2013-11-04 05:57:00,60.1,56.6,29.97,SSE,164,0.0,1.4,88,0.00,,,0.00,WUHU216DAVISVP2,2013-11-04 11:57:00,
2013-11-04 06:03:00,60.2,56.7,29.97,SSE,164,0.0,1.4,88,0.00,,,0.00,WUHU216DAVISVP2,2013-11-04 12:03:00,
2013-11-04 06:08:00,60.3,56.8,29.98,SSE,164,0.0,1.4,88,0.00,,,0.00,WUHU216DAVISVP2,2013-11-04 12:08:00,
2013-11-04 06:13:00,60.3,56.8,29.98,SSE,164,0.0,1.4,88,0.00,,,0.00,WUHU216DAVISVP2,2013-11-04 12:13:00,
2013-11-04 06:18:00,60.3,56.7,29.98,SSE,162,1.4,1.4,88,0.00,,,0.00,WUHU216DAVISVP2,2013-11-04 12:18:00,
2013-11-04 06:23:00,60.4,56.8,29.98,East,80,1.4,2.7,88,0.00,,,0.00,WUHU216DAVISVP2,2013-11-04 12:23:00,
2013-11-04 06:28:00,60.4,56.5,29.99,ENE,68,0.0,2.7,87,0.00,,,0.00,WUHU216DAVISVP2,2013-11-04 12:28:00,
2013-11-04 06:33:00,60.4,56.5,29.99,ENE,68,0.0,2.7,87,0.00,,,0.00,WUHU216DAVISVP2,2013-11-04 12:33:00,
2013-11-04 06:38:00,60.5,56.6,29.99,ENE,68,0.0,2.0,87,0.00,,,0.00,WUHU216DAVISVP2,2013-11-04 12:38:00,
2013-11-04 06:43:00,60.5,56.6,29.99,ENE,68,0.0,1.4,87,0.00,,,0.00,WUHU216DAVISVP2,2013-11-04 12:43:00,
2013-11-04 06:48:00,60.4,56.5,29.99,ENE,68,0.0,1.4,87,0.00,,,0.00,WUHU216DAVISVP2,2013-11-04 12:48:00,
2013-11-04 06:53:00,60.5,56.9,29.99,ENE,57,1.4,2.0,88,0.00,,,0.00,WUHU216DAVISVP2,2013-11-04 12:53:00,
2013-11-04 06:58:00,60.6,57.0,29.99,North,2,1.4,4.1,88,0.00,,,0.00,WUHU216DAVISVP2,2013-11-04 12:58:00,
2013-11-04 07:03:00,60.6,57.0,29.99,North,2,0.0,4.1,88,0.00,,,0.00,WUHU216DAVISVP2,2013-11-04 13:03:00,
2013-11-04 07:08:00,60.6,57.0,29.99,North,2,0.0,3.0,88,0.00,,,0.00,WUHU216DAVISVP2,2013-11-04 13:08:00,
2013-11-04 07:13:00,60.6,57.0,29.99,North,2,0.0,3.0,88,0.00,,,0.00,WUHU216DAVISVP2,2013-11-04 13:13:00,
2013-11-04 07:18:00,60.7,57.1,29.99,North,2,0.0,1.0,88,0.00,,,0.00,WUHU216DAVISVP2,2013-11-04 13:18:00,
2013-11-04 07:23:00,60.7,57.4,29.99,North,2,0.0,0.0,89,0.00,,,0.00,WUHU216DAVISVP2,2013-11-04 13:23:00,
2013-11-04 07:28:00,60.7,57.4,30.00,North,2,0.0,0.0,89,0.00,,,0.00,WUHU216DAVISVP2,2013-11-04 13:28:00,
2013-11-04 07:33:00,60.7,57.7,30.00,North,2,0.0,0.0,90,0.00,,,0.00,WUHU216DAVISVP2,2013-11-04 13:33:00,
2013-11-04 07:38:00,60.7,57.7,30.00,North,2,0.0,1.0,90,0.00,,,0.00,WUHU216DAVISVP2,2013-11-04 13:38:00,
2013-11-04 07:43:00,60.7,57.7,30.00,North,2,0.0,1.0,90,0.00,,,0.00,WUHU216DAVISVP2,2013-11-04 13:43:00,
2013-11-04 07:48:00,60.8,57.8,30.01,North,2,0.0,1.0,90,0.00,,,0.00,WUHU216DAVISVP2,2013-11-04 13:48:00,
2013-11-04 07:53:00,60.8,57.8,30.01,North,2,1.4,2.7,90,0.00,,,0.00,WUHU216DAVISVP2,2013-11-04 13:53:00,
2013-11-04 07:58:00,60.8,58.1,30.01,North,2,0.0,2.7,91,0.00,,,0.00,WUHU216DAVISVP2,2013-11-04 13:58:00,
2013-11-04 08:03:00,61.0,58.3,30.01,North,2,0.0,2.0,91,0.00,,,0.00,WUHU216DAVISVP2,2013-11-04 14:03:00,
2013-11-04 08:08:00,61.1,58.4,30.01,North,2,0.0,2.0,91,0.00,,,0.00,WUHU216DAVISVP2,2013-11-04 14:08:00,
2013-11-04 08:13:00,61.1,58.4,30.01,North,2,1.4,2.0,91,0.00,,,0.00,WUHU216DAVISVP2,2013-11-04 14:13:00,
2013-11-04 08:18:00,61.2,58.5,30.01,North,2,0.0,2.7,91,0.00,,,0.00,WUHU216DAVISVP2,2013-11-04 14:18:00,
2013-11-04 08:23:00,61.2,58.5,30.01,North,7,0.0,2.7,91,0.00,,,0.00,WUHU216DAVISVP2,2013-11-04 14:23:00,
2013-11-04 08:28:00,61.2,58.5,30.01,NE,41,0.0,2.0,91,0.00,,,0.00,WUHU216DAVISVP2,2013-11-04 14:28:00,
2013-11-04 08:33:00,61.1,58.5,30.01,NE,41,0.0,2.0,91,0.00,,,0.00,WUHU216DAVISVP2,2013-11-04 14:33:00,
2013-11-04 08:38:00,61.1,58.4,30.01,NE,41,0.0,2.0,91,0.00,,,0.00,WUHU216DAVISVP2,2013-11-04 14:38:00,
2013-11-04 08:43:00,61.3,58.3,30.02,NE,41,0.0,1.0,90,0.00,,,0.00,WUHU216DAVISVP2,2013-11-04 14:43:00,
2013-11-04 08:48:00,61.4,58.7,30.01,NE,41,0.0,1.4,91,0.00,,,0.00,WUHU216DAVISVP2,2013-11-04 14:48:00,
2013-11-04 08:53:00,61.7,58.7,30.02,NE,41,0.0,2.0,90,0.00,,,0.00,WUHU216DAVISVP2,2013-11-04 14:53:00,
2013-11-04 08:58:00,61.8,58.5,30.01,NE,41,0.0,4.1,89,0.00,,,0.00,WUHU216DAVISVP2,2013-11-04 14:58:00,
2013-11-04 09:03:00,62.0,58.7,30.01,NE,41,2.7,4.1,89,0.00,,,0.00,WUHU216DAVISVP2,2013-11-04 15:03:00,
2013-11-04 09:08:00,62.3,59.0,30.02,NE,41,1.4,4.1,89,0.00,,,0.00,WUHU216DAVISVP2,2013-11-04 15:08:00,
2013-11-04 09:13:00,62.6,59.2,30.02,NNE,18,0.0,5.4,89,0.00,,,0.00,WUHU216DAVISVP2,2013-11-04 15:13:00,
2013-11-04 09:18:00,62.8,58.9,30.02,NNE,20,0.0,5.4,87,0.00,,,0.00,WUHU216DAVISVP2,2013-11-04 15:18:00,
2013-11-04 09:23:00,62.9,59.0,30.02,NNE,20,1.4,4.0,87,0.00,,,0.00,WUHU216DAVISVP2,2013-11-04 15:23:00,
2013-11-04 09:28:00,63.1,58.8,30.02,NNE,23,0.0,3.0,86,0.00,,,0.00,WUHU216DAVISVP2,2013-11-04 15:28:00,
2013-11-04 09:33:00,63.1,58.9,30.02,NNE,23,0.0,4.1,86,0.00,,,0.00,WUHU216DAVISVP2,2013-11-04 15:33:00,
2013-11-04 09:38:00,63.1,58.5,30.01,NNE,23,0.0,4.1,85,0.00,,,0.00,WUHU216DAVISVP2,2013-11-04 15:38:00,
2013-11-04 09:43:00,63.1,58.5,30.01,NNE,23,0.0,3.0,85,0.00,,,0.00,WUHU216DAVISVP2,2013-11-04 15:43:00,
2013-11-04 09:48:00,63.1,58.5,30.01,NNE,23,0.0,3.0,85,0.00,,,0.00,WUHU216DAVISVP2,2013-11-04 15:48:00,
2013-11-04 09:53:00,63.2,58.6,30.01,NNE,23,0.0,1.4,85,0.00,,,0.00,WUHU216DAVISVP2,2013-11-04 15:53:00,
2013-11-04 09:58:00,63.2,58.3,30.01,NNE,24,4.1,4.1,84,0.00,,,0.00,WUHU216DAVISVP2,2013-11-04 15:58:00,
2013-11-04 10:03:00,63.4,58.5,30.01,NNE,26,1.4,5.4,84,0.00,,,0.00,WUHU216DAVISVP2,2013-11-04 16:03:00,
2013-11-04 10:08:00,63.5,58.9,30.01,NNE,26,0.0,5.4,85,0.00,,,0.00,WUHU216DAVISVP2,2013-11-04 16:08:00,
2013-11-04 10:13:00,63.7,58.8,30.01,NNE,26,2.7,4.1,84,0.00,,,0.00,WUHU216DAVISVP2,2013-11-04 16:13:00,
2013-11-04 10:18:00,63.9,58.6,30.02,NNE,26,0.0,4.1,83,0.00,,,0.00,WUHU216DAVISVP2,2013-11-04 16:18:00,
2013-11-04 10:23:00,63.9,58.4,30.02,NNE,26,0.0,3.0,82,0.00,,,0.00,WUHU216DAVISVP2,2013-11-04 16:23:00,
2013-11-04 10:28:00,64.1,58.2,30.02,ENE,64,1.4,3.0,81,0.00,,,0.00,WUHU216DAVISVP2,2013-11-04 16:28:00,
2013-11-04 10:33:00,64.1,58.6,30.02,ENE,64,0.0,2.7,82,0.00,,,0.00,WUHU216DAVISVP2,2013-11-04 16:33:00,
2013-11-04 10:38:00,64.4,58.8,30.01,ENE,63,0.0,2.7,82,0.00,,,0.00,WUHU216DAVISVP2,2013-11-04 16:38:00,
2013-11-04 10:43:00,64.6,59.4,30.01,NE,56,0.0,3.0,83,0.00,,,0.00,WUHU216DAVISVP2,2013-11-04 16:43:00,
2013-11-04 10:48:00,64.8,58.6,30.01,NE,56,0.0,3.0,80,0.00,,,0.00,WUHU216DAVISVP2,2013-11-04 16:48:00,
2013-11-04 10:53:00,65.1,59.2,30.01,NE,56,0.0,3.0,81,0.00,,,0.00,WUHU216DAVISVP2,2013-11-04 16:53:00,
2013-11-04 10:58:00,65.5,59.6,30.01,NE,49,0.0,4.1,81,0.00,,,0.00,WUHU216DAVISVP2,2013-11-04 16:58:00,
2013-11-04 11:03:00,66.0,59.7,30.00,NE,49,1.4,4.1,80,0.00,,,0.00,WUHU216DAVISVP2,2013-11-04 17:03:00,
2013-11-04 11:08:00,66.4,59.0,30.00,NE,49,0.0,3.0,77,0.00,,,0.00,WUHU216DAVISVP2,2013-11-04 17:08:00,
2013-11-04 11:13:00,66.4,59.0,30.00,NE,49,0.0,3.0,77,0.00,,,0.00,WUHU216DAVISVP2,2013-11-04 17:13:00,
2013-11-04 11:18:00,66.6,59.5,29.99,NE,49,0.0,2.0,78,0.00,,,0.00,WUHU216DAVISVP2,2013-11-04 17:18:00,
2013-11-04 11:23:00,66.8,58.6,29.99,NE,49,0.0,0.0,75,0.00,,,0.00,WUHU216DAVISVP2,2013-11-04 17:23:00,
2013-11-04 11:28:00,66.8,59.1,29.99,ENE,58,0.0,0.0,76,0.00,,,0.00,WUHU216DAVISVP2,2013-11-04 17:28:00,
2013-11-04 11:33:00,66.6,58.9,29.99,ESE,107,0.0,4.1,76,0.00,,,0.00,WUHU216DAVISVP2,2013-11-04 17:33:00,
2013-11-04 11:38:00,66.5,59.2,29.98,ESE,107,0.0,4.1,77,0.00,,,0.00,WUHU216DAVISVP2,2013-11-04 17:38:00,
2013-11-04 11:43:00,66.5,58.8,29.98,ESE,107,0.0,3.0,76,0.00,,,0.00,WUHU216DAVISVP2,2013-11-04 17:43:00,
2013-11-04 11:48:00,66.4,59.1,29.98,ESE,107,0.0,3.0,77,0.00,,,0.00,WUHU216DAVISVP2,2013-11-04 17:48:00,
2013-11-04 11:53:00,66.5,59.2,29.98,ESE,105,1.4,2.7,77,0.00,,,0.00,WUHU216DAVISVP2,2013-11-04 17:53:00,
2013-11-04 11:58:00,66.5,59.2,29.97,ESE,107,1.4,2.7,77,0.00,,,0.00,WUHU216DAVISVP2,2013-11-04 17:58:00,
2013-11-04 12:03:00,66.4,59.1,29.97,ESE,103,2.7,4.1,77,0.00,,,0.00,WUHU216DAVISVP2,2013-11-04 18:03:00,
2013-11-04 12:08:00,66.3,59.3,29.97,ESE,103,2.7,6.8,78,0.00,,,0.00,WUHU216DAVISVP2,2013-11-04 18:08:00,
2013-11-04 12:13:00,66.3,59.2,29.97,ESE,103,2.7,6.8,78,0.00,,,0.00,WUHU216DAVISVP2,2013-11-04 18:13:00,
2013-11-04 12:18:00,66.3,59.2,29.96,East,101,1.4,5.0,78,0.00,,,0.00,WUHU216DAVISVP2,2013-11-04 18:18:00,
2013-11-04 12:23:00,66.4,59.4,29.96,ESE,102,0.0,5.0,78,0.00,,,0.00,WUHU216DAVISVP2,2013-11-04 18:23:00,
2013-11-04 12:28:00,66.5,59.2,29.95,East,98,1.4,4.1,77,0.00,,,0.00,WUHU216DAVISVP2,2013-11-04 18:28:00,
2013-11-04 12:33:00,66.5,59.5,29.95,ESE,104,1.4,4.1,78,0.00,,,0.00,WUHU216DAVISVP2,2013-11-04 18:33:00,
2013-11-04 12:38:00,66.5,59.5,29.95,ESE,104,1.4,4.1,78,0.00,,,0.00,WUHU216DAVISVP2,2013-11-04 18:38:00,
2013-11-04 12:43:00,66.6,59.6,29.95,ESE,104,1.4,4.1,78,0.00,,,0.00,WUHU216DAVISVP2,2013-11-04 18:43:00,
2013-11-04 12:48:00,66.8,59.8,29.94,ESE,103,1.4,4.1,78,0.00,,,0.00,WUHU216DAVISVP2,2013-11-04 18:48:00,
2013-11-04 12:53:00,66.8,59.7,29.94,ESE,103,2.7,4.1,78,0.00,,,0.00,WUHU216DAVISVP2,2013-11-04 18:53:00,
2013-11-04 12:58:00,66.9,59.9,29.94,ESE,103,1.4,4.1,78,0.00,,,0.00,WUHU216DAVISVP2,2013-11-04 18:58:00,
2013-11-04 13:03:00,67.0,60.0,29.93,East,101,1.4,4.1,78,0.00,,,0.00,WUHU216DAVISVP2,2013-11-04 19:03:00,
2013-11-04 13:08:00,67.0,60.4,29.93,East,101,0.0,4.1,79,0.00,,,0.00,WUHU216DAVISVP2,2013-11-04 19:08:00,
2013-11-04 13:13:00,67.2,60.6,29.93,East,101,0.0,3.0,79,0.00,,,0.00,WUHU216DAVISVP2,2013-11-04 19:13:00,
2013-11-04 13:18:00,67.4,61.1,29.92,East,101,1.4,3.0,80,0.00,,,0.00,WUHU216DAVISVP2,2013-11-04 19:18:00,
2013-11-04 13:23:00,67.6,60.9,29.92,East,101,1.4,2.7,79,0.00,,,0.00,WUHU216DAVISVP2,2013-11-04 19:23:00,
2013-11-04 13:28:00,67.9,60.9,29.92,East,98,0.0,4.1,78,0.00,,,0.00,WUHU216DAVISVP2,2013-11-04 19:28:00,
2013-11-04 13:33:00,68.3,61.2,29.92,ESE,112,1.4,4.1,78,0.00,,,0.00,WUHU216DAVISVP2,2013-11-04 19:33:00,
2013-11-04 13:38:00,68.8,60.9,29.92,East,101,2.7,4.1,76,0.00,,,0.00,WUHU216DAVISVP2,2013-11-04 19:38:00,
2013-11-04 13:43:00,69.3,61.0,29.92,East,101,0.0,4.1,75,0.00,,,0.00,WUHU216DAVISVP2,2013-11-04 19:43:00,
2013-11-04 13:48:00,69.8,61.7,29.92,East,101,0.0,3.0,75,0.00,,,0.00,WUHU216DAVISVP2,2013-11-04 19:48:00,
2013-11-04 13:57:00,70.5,61.0,29.92,SE,125,2.7,6.0,72,0.00,,,0.00,WUHU216DAVISVP2,2013-11-04 19:57:00,
2013-11-04 14:02:00,70.6,61.5,29.92,SSE,149,0.0,10.8,73,0.00,,,0.00,WUHU216DAVISVP2,2013-11-04 20:02:00,
2013-11-04 14:07:00,70.7,62.2,29.92,SE,124,2.7,10.8,74,0.00,,,0.00,WUHU216DAVISVP2,2013-11-04 20:07:00,
2013-11-04 14:12:00,70.7,61.8,29.92,ESE,114,4.1,10.8,73,0.00,,,0.00,WUHU216DAVISVP2,2013-11-04 20:12:00,
2013-11-04 14:17:00,70.2,60.9,29.91,SE,140,6.8,8.1,72,0.00,,,0.00,WUHU216DAVISVP2,2013-11-04 20:17:00,
2013-11-04 14:22:00,70.2,61.3,29.91,ESE,109,1.4,8.1,73,0.00,,,0.00,WUHU216DAVISVP2,2013-11-04 20:22:00,
2013-11-04 14:27:00,70.5,61.6,29.91,East,99,4.1,6.8,73,0.00,,,0.00,WUHU216DAVISVP2,2013-11-04 20:27:00,
2013-11-04 14:32:00,70.9,62.0,29.91,SE,143,5.4,10.8,73,0.00,,,0.00,WUHU216DAVISVP2,2013-11-04 20:32:00,
2013-11-04 14:37:00,71.2,61.9,29.91,East,95,2.7,10.8,72,0.00,,,0.00,WUHU216DAVISVP2,2013-11-04 20:37:00,
2013-11-04 14:42:00,71.2,61.9,29.91,East,97,2.7,9.0,72,0.00,,,0.00,WUHU216DAVISVP2,2013-11-04 20:42:00,
2013-11-04 14:47:00,70.9,61.6,29.90,ESE,102,1.4,9.0,72,0.00,,,0.00,WUHU216DAVISVP2,2013-11-04 20:47:00,
2013-11-04 14:52:00,70.6,61.7,29.90,ESE,104,4.1,6.8,73,0.00,,,0.00,WUHU216DAVISVP2,2013-11-04 20:52:00,
2013-11-04 14:57:00,70.3,61.4,29.91,ESE,108,2.7,5.4,73,0.00,,,0.00,WUHU216DAVISVP2,2013-11-04 20:57:00,
2013-11-04 15:02:00,70.0,61.5,29.90,ESE,103,2.7,5.4,74,0.00,,,0.00,WUHU216DAVISVP2,2013-11-04 21:02:00,
2013-11-04 15:07:00,69.9,61.4,29.90,ESE,116,1.4,4.1,74,0.00,,,0.00,WUHU216DAVISVP2,2013-11-04 21:07:00,
2013-11-04 15:12:00,69.8,61.3,29.90,East,97,2.7,4.1,74,0.00,,,0.00,WUHU216DAVISVP2,2013-11-04 21:12:00,
2013-11-04 15:17:00,69.8,61.7,29.90,East,95,1.4,4.1,75,0.00,,,0.00,WUHU216DAVISVP2,2013-11-04 21:17:00,
2013-11-04 15:22:00,69.8,61.5,29.90,East,90,2.7,4.1,75,0.00,,,0.00,WUHU216DAVISVP2,2013-11-04 21:22:00,
2013-11-04 15:27:00,69.8,61.9,29.90,East,90,1.4,4.1,76,0.00,,,0.00,WUHU216DAVISVP2,2013-11-04 21:27:00,
2013-11-04 15:32:00,69.8,62.0,29.90,East,90,1.4,3.0,76,0.00,,,0.00,WUHU216DAVISVP2,2013-11-04 21:32:00,
2013-11-04 15:37:00,69.9,61.6,29.91,East,84,0.0,3.0,75,0.00,,,0.00,WUHU216DAVISVP2,2013-11-04 21:37:00,
2013-11-04 15:42:00,69.9,62.1,29.90,East,84,1.4,2.7,76,0.00,,,0.00,WUHU216DAVISVP2,2013-11-04 21:42:00,
2013-11-04 15:47:00,69.9,62.1,29.91,East,85,0.0,4.1,76,0.00,,,0.00,WUHU216DAVISVP2,2013-11-04 21:47:00,
2013-11-04 15:52:00,70.0,62.2,29.90,East,85,1.4,4.1,76,0.00,,,0.00,WUHU216DAVISVP2,2013-11-04 21:52:00,
2013-11-04 15:57:00,70.0,62.1,29.90,East,85,0.0,3.0,76,0.00,,,0.00,WUHU216DAVISVP2,2013-11-04 21:57:00,
2013-11-04 16:02:00,70.0,62.1,29.91,NE,40,1.4,2.7,76,0.00,,,0.00,WUHU216DAVISVP2,2013-11-04 22:02:00,
2013-11-04 16:07:00,70.0,62.2,29.90,NE,40,0.0,2.7,76,0.00,,,0.00,WUHU216DAVISVP2,2013-11-04 22:07:00,
2013-11-04 16:12:00,70.0,62.2,29.90,NE,41,2.7,2.7,76,0.00,,,0.00,WUHU216DAVISVP2,2013-11-04 22:12:00,
2013-11-04 16:17:00,69.9,62.1,29.90,NE,41,1.4,2.7,76,0.00,,,0.00,WUHU216DAVISVP2,2013-11-04 22:17:00,
2013-11-04 16:22:00,69.9,62.1,29.91,NE,40,1.4,2.7,76,0.00,,,0.00,WUHU216DAVISVP2,2013-11-04 22:22:00,
2013-11-04 16:27:00,69.9,62.1,29.90,NE,43,0.0,3.0,76,0.00,,,0.00,WUHU216DAVISVP2,2013-11-04 22:27:00,
2013-11-04 16:32:00,69.8,62.4,29.90,NE,47,0.0,3.0,77,0.00,,,0.00,WUHU216DAVISVP2,2013-11-04 22:32:00,
2013-11-04 16:37:00,69.7,62.3,29.91,NE,37,0.0,4.1,77,0.00,,,0.00,WUHU216DAVISVP2,2013-11-04 22:37:00,
2013-11-04 16:42:00,69.7,62.3,29.91,NE,43,1.4,4.1,77,0.00,,,0.00,WUHU216DAVISVP2,2013-11-04 22:42:00,
2013-11-04 16:47:00,69.6,62.2,29.91,NE,43,0.0,3.0,77,0.00,,,0.00,WUHU216DAVISVP2,2013-11-04 22:47:00,
2013-11-04 16:52:00,69.5,62.1,29.91,NE,44,1.4,4.1,77,0.00,,,0.00,WUHU216DAVISVP2,2013-11-04 22:52:00,
2013-11-04 16:57:00,69.4,62.0,29.91,NE,52,1.4,4.1,77,0.00,,,0.00,WUHU216DAVISVP2,2013-11-04 22:57:00,
2013-11-04 17:02:00,69.4,62.0,29.91,NE,52,0.0,4.1,77,0.00,,,0.00,WUHU216DAVISVP2,2013-11-04 23:02:00,
2013-11-04 17:07:00,69.3,62.2,29.91,NE,51,1.4,3.0,78,0.00,,,0.00,WUHU216DAVISVP2,2013-11-04 23:07:00,
2013-11-04 17:12:00,69.3,62.2,29.91,NE,38,0.0,4.1,78,0.00,,,0.00,WUHU216DAVISVP2,2013-11-04 23:12:00,
2013-11-04 17:17:00,69.1,62.1,29.91,NE,39,0.0,4.1,78,0.00,,,0.00,WUHU216DAVISVP2,2013-11-04 23:17:00,
2013-11-04 17:22:00,69.1,62.4,29.91,NE,39,1.4,3.0,79,0.00,,,0.00,WUHU216DAVISVP2,2013-11-04 23:22:00,
2013-11-04 17:27:00,69.0,62.3,29.91,NE,35,1.4,4.1,79,0.00,,,0.00,WUHU216DAVISVP2,2013-11-04 23:27:00,
2013-11-04 17:32:00,68.8,62.1,29.91,NE,38,0.0,4.1,79,0.00,,,0.00,WUHU216DAVISVP2,2013-11-04 23:32:00,
2013-11-04 17:37:00,68.8,62.4,29.92,NE,38,0.0,4.1,80,0.00,,,0.00,WUHU216DAVISVP2,2013-11-04 23:37:00,
2013-11-04 17:42:00,68.7,62.4,29.92,NE,38,0.0,4.1,80,0.00,,,0.00,WUHU216DAVISVP2,2013-11-04 23:42:00,
2013-11-04 17:47:00,68.5,62.2,29.91,NNE,32,0.0,5.4,80,0.00,,,0.00,WUHU216DAVISVP2,2013-11-04 23:47:00,
2013-11-04 17:52:00,68.4,62.1,29.92,NE,36,2.7,5.4,80,0.00,,,0.00,WUHU216DAVISVP2,2013-11-04 23:52:00,
2013-11-04 17:57:00,68.3,62.2,29.91,NE,44,0.0,5.4,81,0.00,,,0.00,WUHU216DAVISVP2,2013-11-04 23:57:00,
2013-11-04 18:02:00,68.2,62.5,29.92,NE,45,0.0,5.4,82,0.00,,,0.00,WUHU216DAVISVP2,2013-11-05 00:02:00,
2013-11-04 18:07:00,68.1,62.4,29.92,NE,45,2.7,4.0,82,0.00,,,0.00,WUHU216DAVISVP2,2013-11-05 00:07:00,
2013-11-04 18:12:00,68.0,62.4,29.92,NE,54,1.4,4.1,82,0.00,,,0.00,WUHU216DAVISVP2,2013-11-05 00:12:00,
2013-11-04 18:17:00,67.9,62.3,29.92,NE,54,0.0,4.1,82,0.00,,,0.00,WUHU216DAVISVP2,2013-11-05 00:17:00,
2013-11-04 18:22:00,67.9,62.6,29.92,NE,54,0.0,3.0,83,0.00,,,0.00,WUHU216DAVISVP2,2013-11-05 00:22:00,
2013-11-04 18:27:00,67.8,62.5,29.92,NE,54,0.0,2.7,83,0.00,,,0.00,WUHU216DAVISVP2,2013-11-05 00:27:00,
2013-11-04 18:32:00,67.7,62.7,29.92,NE,39,0.0,4.1,84,0.00,,,0.00,WUHU216DAVISVP2,2013-11-05 00:32:00,
2013-11-04 18:37:00,67.7,62.7,29.93,NE,42,1.4,4.1,84,0.00,,,0.00,WUHU216DAVISVP2,2013-11-05 00:37:00,
2013-11-04 18:42:00,67.6,62.6,29.93,NE,41,0.0,4.1,84,0.00,,,0.00,WUHU216DAVISVP2,2013-11-05 00:42:00,
2013-11-04 18:47:00,67.6,63.0,29.93,NE,41,0.0,3.0,85,0.00,,,0.00,WUHU216DAVISVP2,2013-11-05 00:47:00,
2013-11-04 18:52:00,67.5,62.5,29.93,NE,41,1.4,3.0,84,0.00,,,0.00,WUHU216DAVISVP2,2013-11-05 00:52:00,
2013-11-04 18:57:00,67.5,62.9,29.93,NE,41,0.0,3.0,85,0.00,,,0.00,WUHU216DAVISVP2,2013-11-05 00:57:00,
2013-11-04 19:02:00,67.4,62.7,29.93,NE,41,0.0,2.0,85,0.00,,,0.00,WUHU216DAVISVP2,2013-11-05 01:02:00,
2013-11-04 19:07:00,67.4,62.7,29.93,NE,41,0.0,2.7,85,0.00,,,0.00,WUHU216DAVISVP2,2013-11-05 01:07:00,
2013-11-04 19:12:00,67.3,62.7,29.94,NE,41,1.4,4.1,85,0.00,,,0.00,WUHU216DAVISVP2,2013-11-05 01:12:00,
2013-11-04 19:17:00,67.3,62.7,29.94,NE,38,0.0,4.1,85,0.00,,,0.00,WUHU216DAVISVP2,2013-11-05 01:17:00,
2013-11-04 19:22:00,67.2,62.9,29.94,NE,45,0.0,3.0,86,0.00,,,0.00,WUHU216DAVISVP2,2013-11-05 01:22:00,
2013-11-04 19:27:00,67.2,62.9,29.94,NE,45,0.0,3.0,86,0.00,,,0.00,WUHU216DAVISVP2,2013-11-05 01:27:00,
2013-11-04 19:32:00,67.2,62.9,29.94,NE,45,0.0,2.0,86,0.00,,,0.00,WUHU216DAVISVP2,2013-11-05 01:32:00,
2013-11-04 19:37:00,67.1,62.8,29.95,NE,46,0.0,2.0,86,0.00,,,0.00,WUHU216DAVISVP2,2013-11-05 01:37:00,
2013-11-04 19:42:00,67.0,62.7,29.95,NE,35,4.1,5.4,86,0.00,,,0.00,WUHU216DAVISVP2,2013-11-05 01:42:00,
2013-11-04 19:47:00,67.0,62.7,29.95,NE,35,1.4,5.4,86,0.00,,,0.00,WUHU216DAVISVP2,2013-11-05 01:47:00,
2013-11-04 19:52:00,66.9,62.6,29.96,NE,43,1.4,4.1,86,0.00,,,0.00,WUHU216DAVISVP2,2013-11-05 01:52:00,
2013-11-04 19:57:00,66.9,62.9,29.96,NE,43,0.0,4.0,87,0.00,,,0.00,WUHU216DAVISVP2,2013-11-05 01:57:00,
2013-11-04 20:02:00,66.8,62.8,29.96,NNE,26,1.4,3.0,87,0.00,,,0.00,WUHU216DAVISVP2,2013-11-05 02:02:00,
2013-11-04 20:07:00,66.8,62.8,29.96,NE,46,0.0,3.0,87,0.00,,,0.00,WUHU216DAVISVP2,2013-11-05 02:07:00,
2013-11-04 20:12:00,66.8,62.8,29.96,NE,48,1.4,3.0,87,0.00,,,0.00,WUHU216DAVISVP2,2013-11-05 02:12:00,
2013-11-04 20:17:00,66.8,62.8,29.96,NE,39,0.0,2.7,87,0.00,,,0.00,WUHU216DAVISVP2,2013-11-05 02:17:00,
2013-11-04 20:22:00,66.8,62.8,29.96,NE,41,0.0,4.1,87,0.00,,,0.00,WUHU216DAVISVP2,2013-11-05 02:22:00,
2013-11-04 20:27:00,66.8,63.1,29.96,NE,45,0.0,4.1,88,0.00,,,0.00,WUHU216DAVISVP2,2013-11-05 02:27:00,
2013-11-04 20:32:00,66.8,63.1,29.96,NE,47,1.4,4.1,88,0.00,,,0.00,WUHU216DAVISVP2,2013-11-05 02:32:00,
2013-11-04 20:37:00,66.9,63.2,29.96,NE,43,2.7,4.1,88,0.00,,,0.00,WUHU216DAVISVP2,2013-11-05 02:37:00,
2013-11-04 20:42:00,66.9,63.2,29.96,NE,56,1.4,4.1,88,0.00,,,0.00,WUHU216DAVISVP2,2013-11-05 02:42:00,
2013-11-04 20:47:00,66.9,63.2,29.96,NE,56,0.0,4.1,88,0.00,,,0.00,WUHU216DAVISVP2,2013-11-05 02:47:00,
2013-11-04 20:52:00,67.0,63.3,29.96,ENE,58,0.0,3.0,88,0.00,,,0.00,WUHU216DAVISVP2,2013-11-05 02:52:00,
2013-11-04 20:57:00,67.1,63.7,29.96,ENE,58,1.4,2.7,89,0.00,,,0.00,WUHU216DAVISVP2,2013-11-05 02:57:00,
2013-11-04 21:02:00,67.1,63.8,29.96,ENE,60,0.0,4.1,89,0.00,,,0.00,WUHU216DAVISVP2,2013-11-05 03:02:00,
2013-11-04 21:07:00,67.2,63.8,29.96,ENE,70,2.7,4.1,89,0.00,,,0.00,WUHU216DAVISVP2,2013-11-05 03:07:00,
2013-11-04 21:12:00,67.2,63.8,29.96,ENE,70,1.4,3.0,89,0.00,,,0.00,WUHU216DAVISVP2,2013-11-05 03:12:00,
2013-11-04 21:17:00,67.2,63.9,29.96,ENE,70,0.0,3.0,89,0.00,,,0.00,WUHU216DAVISVP2,2013-11-05 03:17:00,
2013-11-04 21:22:00,67.3,63.9,29.96,ENE,70,0.0,2.7,89,0.00,,,0.00,WUHU216DAVISVP2,2013-11-05 03:22:00,
2013-11-04 21:27:00,67.3,63.9,29.96,ENE,70,1.4,2.7,89,0.00,,,0.00,WUHU216DAVISVP2,2013-11-05 03:27:00,
2013-11-04 21:32:00,67.3,64.3,29.96,ENE,72,0.0,2.7,90,0.00,,,0.00,WUHU216DAVISVP2,2013-11-05 03:32:00,
2013-11-04 21:37:00,67.3,64.2,29.96,ENE,72,0.0,2.7,90,0.00,,,0.00,WUHU216DAVISVP2,2013-11-05 03:37:00,
2013-11-04 21:42:00,67.3,64.3,29.96,ENE,76,1.4,2.7,90,0.00,,,0.00,WUHU216DAVISVP2,2013-11-05 03:42:00,
2013-11-04 21:47:00,67.4,64.3,29.96,ENE,76,1.4,2.7,90,0.00,,,0.00,WUHU216DAVISVP2,2013-11-05 03:47:00,
2013-11-04 21:52:00,67.4,64.3,29.96,ESE,117,2.7,2.7,90,0.00,,,0.00,WUHU216DAVISVP2,2013-11-05 03:52:00,
2013-11-04 21:57:00,67.4,64.4,29.96,ESE,115,1.4,2.7,90,0.00,,,0.00,WUHU216DAVISVP2,2013-11-05 03:57:00,
2013-11-04 22:02:00,67.4,64.7,29.97,ESE,115,0.0,2.7,91,0.00,,,0.00,WUHU216DAVISVP2,2013-11-05 04:02:00,
2013-11-04 22:07:00,67.4,64.6,29.97,ESE,115,0.0,2.7,91,0.00,,,0.00,WUHU216DAVISVP2,2013-11-05 04:07:00,
2013-11-04 22:12:00,67.4,64.7,29.97,ESE,115,1.4,2.0,91,0.00,,,0.00,WUHU216DAVISVP2,2013-11-05 04:12:00,
2013-11-04 22:17:00,67.4,64.7,29.96,ESE,116,0.0,2.0,91,0.00,,,0.00,WUHU216DAVISVP2,2013-11-05 04:17:00,
2013-11-04 22:22:00,67.4,64.6,29.96,ESE,116,2.7,2.7,91,0.00,,,0.00,WUHU216DAVISVP2,2013-11-05 04:22:00,
2013-11-04 22:27:00,67.4,64.7,29.96,ESE,115,1.4,2.7,91,0.00,,,0.00,WUHU216DAVISVP2,2013-11-05 04:27:00,
2013-11-04 22:32:00,67.4,65.0,29.96,ESE,115,0.0,2.7,92,0.00,,,0.00,WUHU216DAVISVP2,2013-11-05 04:32:00,
2013-11-04 22:37:00,67.5,65.0,29.96,ESE,110,0.0,2.7,92,0.00,,,0.00,WUHU216DAVISVP2,2013-11-05 04:37:00,
2013-11-04 22:42:00,67.4,65.0,29.96,ESE,110,0.0,2.7,92,0.00,,,0.00,WUHU216DAVISVP2,2013-11-05 04:42:00,
2013-11-04 22:47:00,67.3,64.9,29.96,ESE,110,0.0,2.7,92,0.00,,,0.00,WUHU216DAVISVP2,2013-11-05 04:47:00,
2013-11-04 22:52:00,67.2,64.8,29.95,ESE,110,0.0,2.0,92,0.00,,,0.00,WUHU216DAVISVP2,2013-11-05 04:52:00,
2013-11-04 22:57:00,67.3,64.8,29.95,ESE,110,1.4,2.7,92,0.00,,,0.00,WUHU216DAVISVP2,2013-11-05 04:57:00,
2013-11-04 23:01:00,67.2,64.8,29.95,ESE,110,0.0,2.7,92,0.00,,,0.00,WUHU216DAVISVP2,2013-11-05 05:01:00,
2013-11-04 23:06:00,67.1,65.0,29.95,ESE,110,0.0,2.7,93,0.00,,,0.00,WUHU216DAVISVP2,2013-11-05 05:06:00,
2013-11-04 23:11:00,67.1,65.0,29.95,ESE,108,1.4,4.1,93,0.00,,,0.00,WUHU216DAVISVP2,2013-11-05 05:11:00,
2013-11-04 23:16:00,67.1,64.9,29.95,ESE,108,1.4,4.1,93,0.00,,,0.00,WUHU216DAVISVP2,2013-11-05 05:16:00,
2013-11-04 23:21:00,67.0,64.9,29.95,ESE,108,0.0,3.0,93,0.00,,,0.00,WUHU216DAVISVP2,2013-11-05 05:21:00,
2013-11-04 23:26:00,66.9,64.8,29.95,ESE,108,0.0,3.0,93,0.00,,,0.00,WUHU216DAVISVP2,2013-11-05 05:26:00,
2013-11-04 23:31:00,66.8,64.7,29.95,ESE,108,0.0,1.4,93,0.00,,,0.00,WUHU216DAVISVP2,2013-11-05 05:31:00,
2013-11-04 23:36:00,66.8,64.6,29.95,ESE,108,0.0,1.0,93,0.00,,,0.00,WUHU216DAVISVP2,2013-11-05 05:36:00,
2013-11-04 23:41:00,66.8,65.0,29.95,NE,37,4.1,5.4,94,0.00,,,0.00,WUHU216DAVISVP2,2013-11-05 05:41:00,
2013-11-04 23:46:00,66.7,64.9,29.95,NE,36,0.0,5.4,94,0.00,,,0.00,WUHU216DAVISVP2,2013-11-05 05:46:00,
2013-11-04 23:51:00,66.7,64.9,29.95,NE,36,0.0,5.4,94,0.00,,,0.00,WUHU216DAVISVP2,2013-11-05 05:51:00,
2013-11-04 23:56:00,66.6,64.8,29.95,NE,36,0.0,4.0,94,0.00,,,0.00,WUHU216DAVISVP2,2013-11-05 05:56:00,